UNIX Timestamp [ms]; Conductivity [S/m]; Pressure [dBar]; Temperature [°C]
1339286447000;4.66302;2060.520;13.8016
1339290048000;4.66302;2060.510;13.8018
1339293648000;4.66303;2060.520;13.8018
1339297248000;4.66308;2060.540;13.8019
1339300848000;4.66309;2060.540;13.8027
1339304448000;4.66309;2060.580;13.8020
1339308048000;4.66309;2060.600;13.8024
1339311647000;4.66310;2060.610;13.8022
1339315248000;4.66309;2060.580;13.8024
1339333248000;4.66291;2060.520;13.8005
1339336848000;4.66294;2060.550;13.8007
1339340448000;4.66296;2060.560;13.8013
1339344047000;4.66302;2060.570;13.8018
1339347648000;4.66299;2060.570;13.8014
1339351248000;4.66291;2060.590;13.8005
1339354848000;4.66288;2060.600;13.8002
1339358448000;4.66288;2060.580;13.8003
1339362047000;4.66288;2060.550;13.8005
1339365648000;4.66285;2060.550;13.7998
1339369248000;4.66282;2060.520;13.8000
1339372847000;4.66280;2060.510;13.8002
1339376448000;4.66282;2060.490;13.7997
1339380048000;4.66281;2060.480;13.8001
1339383648000;4.66281;2060.510;13.7998
1339387248000;4.66282;2060.520;13.7998
1339390848000;4.66281;2060.540;13.7994
1339394447000;4.66277;2060.550;13.7991
1339398048000;4.66277;2060.580;13.7994
1339401648000;4.66275;2060.560;13.7995
1339405248000;4.66281;2060.570;13.7995
1339408847000;4.66300;2060.560;13.8013
1339412447000;4.66292;2060.510;13.8010
1339416048000;4.66289;2060.540;13.8001
1339419648000;4.66292;2060.520;13.8008
1339423247000;4.66299;2060.510;13.8010
1339426848000;4.66291;2060.510;13.8006
1339430448000;4.66286;2060.490;13.8000
1339434048000;4.66281;2060.540;13.7996
1339437647000;4.66281;2060.550;13.7995
1339441247000;4.66282;2060.570;13.8000
1339444848000;4.66288;2060.550;13.8002
1339448448000;4.66286;2060.560;13.8000
1339452047000;4.66281;2060.540;13.7997
1339455647000;4.66280;2060.510;13.7995
1339459247000;4.66277;2060.470;13.7993
1339462848000;4.66275;2060.470;13.7992
1339466448000;4.66275;2060.460;13.7993
1339470047000;4.66274;2060.450;13.7992
1339473647000;4.66274;2060.480;13.7990
1339477248000;4.66275;2060.470;13.7990
1339480847000;4.66275;2060.530;13.7989
1339484447000;4.66275;2060.540;13.7993
1339488047000;4.66275;2060.560;13.7999
1339491648000;4.66277;2060.550;13.7990
1339495247000;4.66281;2060.570;13.7997
1339498847000;4.66288;2060.560;13.8001
1339502447000;4.66292;2060.540;13.8008
1339506047000;4.66281;2060.520;13.7996
1339509647000;4.66277;2060.510;13.7992
1339513247000;4.66275;2060.490;13.7991
1339516847000;4.66272;2060.520;13.7988
1339520447000;4.66274;2060.510;13.7990
1339524047000;4.66274;2060.540;13.7988
1339527647000;4.66270;2060.520;13.7990
1339531247000;4.66270;2060.560;13.7986
1339534847000;4.66268;2060.560;13.7984
1339538447000;4.66272;2060.580;13.7984
1339542047000;4.66270;2060.560;13.7986
1339545647000;4.66272;2060.520;13.7988
1339549247000;4.66272;2060.500;13.7988
1339552847000;4.66274;2060.500;13.7989
1339556447000;4.66274;2060.480;13.7988
1339560047000;4.66275;2060.500;13.7993
1339563647000;4.66275;2060.510;13.7991
1339567247000;4.66275;2060.520;13.7991
1339570847000;4.66274;2060.550;13.7987
1339574447000;4.66275;2060.560;13.7991
1339578047000;4.66274;2060.580;13.7988
1339581647000;4.66274;2060.620;13.7988
1339585248000;4.66277;2060.620;13.7990
1339588847000;4.66277;2060.620;13.7992
1339592447000;4.66277;2060.590;13.7990
1339596047000;4.66277;2060.570;13.7992
1339599647000;4.66277;2060.520;13.7990
1339603247000;4.66275;2060.500;13.7990
1339606847000;4.66275;2060.520;13.7990
1339610448000;4.66275;2060.530;13.7987
1339614047000;4.66277;2060.550;13.7993
1339617647000;4.66275;2060.550;13.7992
1339621247000;4.66277;2060.580;13.7989
1339624847000;4.66277;2060.590;13.7992
1339628447000;4.66277;2060.590;13.7988
1339632047000;4.66277;2060.570;13.7988
1339635647000;4.66282;2060.540;13.7996
1339639247000;4.66294;2060.530;13.8007
1339642847000;4.66306;2060.490;13.8016
1339646447000;4.66309;2060.480;13.8018
1339650047000;4.66309;2060.490;13.8019
1339653648000;4.66310;2060.500;13.8021
1339657247000;4.66310;2060.520;13.8018
1339660848000;4.66302;2060.550;13.8010
1339664447000;4.66292;2060.590;13.8005
1339668047000;4.66294;2060.600;13.8012
1339671647000;4.66286;2060.600;13.7997
1339675247000;4.66286;2060.630;13.7995
1339678847000;4.66280;2060.600;13.7995
1339682447000;4.66281;2060.560;13.7999
1339686047000;4.66284;2060.520;13.7996
1339689647000;4.66275;2060.520;13.7990
1339693247000;4.66267;2060.500;13.7984
1339696847000;4.66266;2060.480;13.7983
1339700448000;4.66263;2060.520;13.7979
1339704047000;4.66256;2060.550;13.7975
1339707647000;4.66256;2060.550;13.7975
1339711247000;4.66255;2060.580;13.7972
1339714847000;4.66253;2060.590;13.7971
1339718447000;4.66253;2060.580;13.7971
1339722047000;4.66253;2060.560;13.7971
1339725647000;4.66253;2060.530;13.7971
1339729247000;4.66256;2060.520;13.7969
1339732847000;4.66258;2060.480;13.7974
1339736447000;4.66260;2060.490;13.7976
1339740047000;4.66258;2060.480;13.7977
1339743647000;4.66256;2060.490;13.7977
1339747247000;4.66256;2060.500;13.7976
1339750847000;4.66258;2060.560;13.7974
1339754447000;4.66256;2060.600;13.7976
1339758047000;4.66255;2060.620;13.7970
1339761647000;4.66258;2060.600;13.7971
1339765247000;4.66258;2060.620;13.7977
1339768847000;4.66261;2060.600;13.7978
1339772447000;4.66261;2060.540;13.7979
1339776047000;4.66261;2060.510;13.7977
1339779647000;4.66260;2060.490;13.7981
1339783247000;4.66260;2060.490;13.7977
1339786847000;4.66258;2060.480;13.7976
1339790447000;4.66258;2060.490;13.7974
1339794047000;4.66252;2060.520;13.7969
1339797647000;4.66253;2060.560;13.7971
1339804847000;4.66263;2060.570;13.7982
1339808447000;4.66266;2060.530;13.7981
1339812047000;4.66266;2060.540;13.7979
1339815647000;4.66261;2060.470;13.7979
1339819247000;4.66263;2060.460;13.7976
1339822847000;4.66263;2060.470;13.7979
1339826447000;4.66263;2060.450;13.7979
1339830047000;4.66267;2060.460;13.7981
1339833647000;4.66268;2060.500;13.7984
1339837247000;4.66270;2060.530;13.7982
1339840847000;4.66272;2060.560;13.7983
1339844447000;4.66267;2060.600;13.7983
1339848047000;4.66263;2060.620;13.7977
1339851647000;4.66255;2060.630;13.7966
1339855247000;4.66260;2060.600;13.7974
1339858847000;4.66256;2060.560;13.7971
1339862447000;4.66256;2060.530;13.7971
1339866047000;4.66263;2060.470;13.7979
1339869647000;4.66268;2060.450;13.7982
1339873247000;4.66270;2060.460;13.7981
1339876847000;4.66274;2060.450;13.7987
1339880447000;4.66274;2060.500;13.7985
1339884047000;4.66272;2060.510;13.7984
1339887647000;4.66272;2060.530;13.7983
1339891247000;4.66274;2060.550;13.7989
1339894847000;4.66274;2060.560;13.7988
1339898447000;4.66275;2060.520;13.7988
1339902047000;4.66274;2060.510;13.7985
1339909247000;4.66275;2060.440;13.7986
1339912847000;4.66274;2060.430;13.7986
1339916447000;4.66274;2060.430;13.7986
1339920047000;4.66274;2060.450;13.7984
1339923647000;4.66272;2060.490;13.7985
1339927247000;4.66272;2060.530;13.7984
1339930847000;4.66267;2060.570;13.7982
1339934447000;4.66263;2060.610;13.7979
1339938047000;4.66266;2060.620;13.7979
1339941647000;4.66272;2060.610;13.7984
1339945247000;4.66270;2060.570;13.7982
1339948847000;4.66268;2060.520;13.7982
1339952447000;4.66266;2060.490;13.7979
1339956047000;4.66266;2060.440;13.7979
1339959647000;4.66275;2060.430;13.7993
1339963247000;4.66267;2060.440;13.7981
1339966847000;4.66268;2060.460;13.7982
1339970447000;4.66268;2060.470;13.7983
1339974047000;4.66268;2060.510;13.7984
1339977647000;4.66270;2060.550;13.7986
1339981247000;4.66272;2060.550;13.7983
1339984847000;4.66272;2060.530;13.7983
1339988447000;4.66272;2060.520;13.7984
1339992047000;4.66272;2060.480;13.7986
1339995647000;4.66274;2060.440;13.7987
1339999247000;4.66268;2060.440;13.7979
1340002847000;4.66268;2060.380;13.7984
1340006447000;4.66268;2060.430;13.7984
1340010047000;4.66270;2060.450;13.7983
1340013647000;4.66272;2060.470;13.7986
1340114447000;4.66275;2060.600;13.7986
1340118047000;4.66274;2060.600;13.7985
1340121647000;4.66280;2060.560;13.7991
1340125247000;4.66280;2060.520;13.7995
1340128847000;4.66280;2060.440;13.7993
1340132447000;4.66277;2060.430;13.7988
1340136047000;4.66285;2060.390;13.7997
1340139647000;4.66292;2060.390;13.8002
1340143247000;4.66299;2060.410;13.8007
1340146847000;4.66317;2060.450;13.8024
1340150447000;4.66338;2060.490;13.8042
1340154047000;4.66348;2060.520;13.8053
1340157647000;4.66343;2060.540;13.8047
1340161247000;4.66342;2060.520;13.8047
1340164847000;4.66331;2060.490;13.8037
1340168447000;4.66331;2060.450;13.8036
1340172047000;4.66329;2060.420;13.8029
1340175647000;4.66326;2060.390;13.8035
1340179247000;4.66324;2060.370;13.8031
1340182847000;4.66329;2060.380;13.8033
1340186447000;4.66331;2060.420;13.8034
1340190047000;4.66333;2060.460;13.8036
1340193647000;4.66336;2060.520;13.8039
1340355647000;4.66349;2060.450;13.8052
1340359247000;4.66348;2060.460;13.8048
1340362847000;4.66348;2060.460;13.8051
1340366447000;4.66353;2060.540;13.8046
1340370047000;4.66353;2060.570;13.8056
1340373647000;4.66354;2060.580;13.8056
1340377247000;4.66356;2060.610;13.8057
1340380847000;4.66356;2060.610;13.8053
1340384447000;4.66357;2060.630;13.8058
1340388047000;4.66368;2060.590;13.8065
1340391647000;4.66373;2060.550;13.8075
1340395247000;4.66414;2060.500;13.8097
1340398847000;4.66392;2060.470;13.8083
1340402447000;4.66385;2060.440;13.8077
1340406047000;4.66394;2060.460;13.8080
1340409647000;4.66422;2060.470;13.8114
1340413247000;4.66488;2060.510;13.8167
1340416847000;4.66513;2060.560;13.8192
1340420447000;4.66517;2060.590;13.8190
1340424047000;4.66519;2060.610;13.8194
1340427647000;4.66521;2060.610;13.8196
1340431247000;4.66519;2060.560;13.8196
1340434847000;4.66517;2060.550;13.8195
1340438447000;4.66519;2060.480;13.8194
1340442047000;4.66524;2060.480;13.8198
1340445647000;4.66495;2060.480;13.8174
1340449247000;4.66477;2060.490;13.8157
1340452847000;4.66463;2060.510;13.8146
1340456447000;4.66450;2060.550;13.8134
1340460047000;4.66435;2060.580;13.8121
1340463647000;4.66432;2060.640;13.8117
1340467247000;4.66432;2060.650;13.8121
1340470847000;4.66435;2060.650;13.8121
1340474447000;4.66443;2060.620;13.8129
1340478047000;4.66467;2060.580;13.8146
1340481647000;4.66446;2060.570;13.8128
1340485247000;4.66428;2060.520;13.8115
1340488847000;4.66399;2060.480;13.8089
1340492447000;4.66397;2060.470;13.8091
1340496046000;4.66392;2060.470;13.8088
1340499647000;4.66389;2060.500;13.8083
1340503247000;4.66392;2060.540;13.8082
1340506847000;4.66390;2060.560;13.8083
1340510447000;4.66392;2060.580;13.8086
1340514047000;4.66395;2060.560;13.8089
1340517647000;4.66399;2060.590;13.8090
1340521247000;4.66403;2060.540;13.8095
1340524847000;4.66414;2060.530;13.8105
1340528447000;4.66427;2060.500;13.8116
1340532047000;4.66432;2060.460;13.8120
1340535647000;4.66435;2060.480;13.8122
1340539247000;4.66441;2060.480;13.8127
1340542847000;4.66423;2060.490;13.8115
1340546446000;4.66417;2060.540;13.8107
1340550047000;4.66413;2060.550;13.8100
1340553647000;4.66403;2060.600;13.8097
1340557247000;4.66397;2060.590;13.8088
1340560847000;4.66399;2060.570;13.8092
1340564447000;4.66399;2060.580;13.8091
1340568047000;4.66397;2060.550;13.8089
1340571647000;4.66397;2060.510;13.8092
1340575247000;4.66397;2060.470;13.8091
1340578847000;4.66399;2060.440;13.8094
1340582447000;4.66402;2060.430;13.8095
1340586047000;4.66408;2060.440;13.8100
1340589647000;4.66404;2060.460;13.8094
1340593247000;4.66404;2060.510;13.8092
1340596847000;4.66404;2060.520;13.8093
1340600447000;4.66408;2060.560;13.8094
1340604047000;4.66402;2060.540;13.8090
1340607647000;4.66399;2060.540;13.8090
1340611247000;4.66397;2060.540;13.8091
1340614847000;4.66397;2060.500;13.8091
1340618447000;4.66408;2060.470;13.8094
1340622046000;4.66406;2060.430;13.8097
1340625647000;4.66408;2060.430;13.8097
1340629246000;4.66406;2060.480;13.8096
1340632846000;4.66406;2060.490;13.8097
1340636447000;4.66409;2060.500;13.8096
1340640046000;4.66404;2060.540;13.8095
1340643646000;4.66394;2060.560;13.8088
1340647247000;4.66395;2060.560;13.8087
1340650847000;4.66394;2060.570;13.8085
1340654447000;4.66390;2060.540;13.8084
1340658047000;4.66384;2060.520;13.8079
1340661647000;4.66377;2060.500;13.8072
1340665247000;4.66375;2060.470;13.8070
1340668847000;4.66375;2060.460;13.8069
1340672447000;4.66376;2060.420;13.8072
1340676047000;4.66376;2060.450;13.8071
1340679647000;4.66381;2060.460;13.8075
1340683247000;4.66387;2060.510;13.8079
1340686847000;4.66394;2060.540;13.8087
1340690447000;4.66394;2060.560;13.8087
1340694046000;4.66392;2060.580;13.8085
1340697647000;4.66392;2060.550;13.8082
1340701247000;4.66390;2060.540;13.8083
1340704846000;4.66389;2060.520;13.8082
1340708446000;4.66389;2060.510;13.8081
1340712046000;4.66387;2060.480;13.8077
1340715647000;4.66389;2060.490;13.8082
1340719246000;4.66384;2060.500;13.8077
1340722846000;4.66383;2060.510;13.8075
1340726446000;4.66384;2060.510;13.8077
1340730046000;4.66385;2060.540;13.8080
1340733646000;4.66390;2060.570;13.8081
1340737246000;4.66395;2060.550;13.8087
1340740846000;4.66397;2060.580;13.8085
1340744446000;4.66397;2060.560;13.8089
1340748046000;4.66397;2060.540;13.8090
1340751646000;4.66397;2060.500;13.8090
1340755246000;4.66399;2060.490;13.8091
1340758846000;4.66399;2060.480;13.8090
1340762446000;4.66403;2060.480;13.8093
1340766046000;4.66395;2060.470;13.8089
1340769646000;4.66371;2060.490;13.8067
1340773246000;4.66371;2060.490;13.8066
1340776846000;4.66367;2060.540;13.8062
1340780446000;4.66362;2060.580;13.8058
1340784046000;4.66362;2060.590;13.8059
1340787646000;4.66362;2060.570;13.8059
1340791246000;4.66362;2060.580;13.8059
1340794846000;4.66359;2060.550;13.8057
1340798446000;4.66359;2060.520;13.8056
1340802046000;4.66359;2060.510;13.8055
1340805646000;4.66359;2060.480;13.8057
1340809246000;4.66360;2060.500;13.8057
1340812846000;4.66357;2060.490;13.8056
1340816446000;4.66356;2060.510;13.8055
1340820046000;4.66353;2060.530;13.8052
1340823646000;4.66350;2060.550;13.8050
1340827246000;4.66353;2060.560;13.8047
1340830846000;4.66350;2060.560;13.8048
1340834446000;4.66350;2060.540;13.8044
1340838046000;4.66350;2060.500;13.8046
1340841646000;4.66350;2060.500;13.8044
1340845246000;4.66350;2060.470;13.8047
1340848846000;4.66348;2060.440;13.8045
1340852446000;4.66346;2060.450;13.8044
1340856046000;4.66354;2060.440;13.8054
1340859646000;4.66353;2060.470;13.8046
1340863246000;4.66356;2060.500;13.8057
1340866846000;4.66353;2060.520;13.8052
1340870446000;4.66353;2060.550;13.8046
1340874046000;4.66354;2060.580;13.8049
1340877646000;4.66367;2060.590;13.8060
1340881246000;4.66364;2060.580;13.8059
1340884846000;4.66375;2060.560;13.8065
1340888446000;4.66390;2060.530;13.8080
1340892046000;4.66389;2060.520;13.8084
1340895646000;4.66399;2060.500;13.8088
1340899246000;4.66399;2060.460;13.8090
1340902846000;4.66397;2060.450;13.8088
1340906446000;4.66397;2060.500;13.8087
1340910046000;4.66399;2060.510;13.8087
1340913646000;4.66397;2060.530;13.8090
1340917246000;4.66394;2060.540;13.8085
1340920846000;4.66395;2060.570;13.8085
1340924446000;4.66422;2060.540;13.8105
1340928046000;4.66411;2060.510;13.8101
1340931646000;4.66397;2060.490;13.8087
1340935246000;4.66397;2060.450;13.8089
1340938846000;4.66397;2060.430;13.8086
1340942445000;4.66397;2060.440;13.8083
1340946046000;4.66397;2060.460;13.8090
1340949646000;4.66397;2060.490;13.8087
1340953246000;4.66399;2060.490;13.8096
1340956846000;4.66395;2060.560;13.8089
1340960446000;4.66392;2060.570;13.8083
1340964046000;4.66389;2060.600;13.8080
1340967646000;4.66385;2060.610;13.8077
1340971246000;4.66385;2060.590;13.8076
1340978446000;4.66384;2060.540;13.8077
1340982046000;4.66387;2060.510;13.8079
1340985645000;4.66371;2060.480;13.8069
1340989246000;4.66360;2060.460;13.8056
1340992846000;4.66364;2060.460;13.8057
1340996446000;4.66356;2060.480;13.8058
1341000045000;4.66350;2060.520;13.8046
1341003646000;4.66350;2060.540;13.8045
1341007246000;4.66350;2060.560;13.8044
1341010846000;4.66356;2060.570;13.8059
1341014445000;4.66348;2060.530;13.8046
1341018045000;4.66346;2060.510;13.8044
1341021645000;4.66343;2060.510;13.8040
1341219644000;4.66295;2060.510;13.7998
1341223244000;4.66288;2060.540;13.7991
1341226844000;4.66286;2060.600;13.7986
1341230444000;4.66302;2060.660;13.8000
1341234044000;4.66286;2060.660;13.7990
1341237644000;4.66286;2060.660;13.7990
1341241244000;4.66282;2060.650;13.7989
1341244844000;4.66282;2060.600;13.7990
1341248444000;4.66296;2060.550;13.8000
1341252044000;4.66298;2060.470;13.8001
1341255644000;4.66285;2060.460;13.7992
1341259244000;4.66288;2060.460;13.7994
1341262844000;4.66291;2060.470;13.7994
1341266444000;4.66294;2060.490;13.8000
1341270044000;4.66295;2060.530;13.7997
1341273644000;4.66294;2060.590;13.7996
1341277244000;4.66294;2060.600;13.7999
1341280844000;4.66291;2060.580;13.7996
1341284444000;4.66292;2060.560;13.8000
1341288044000;4.66293;2060.530;13.7998
1341291644000;4.66295;2060.480;13.7998
1341295244000;4.66292;2060.450;13.8000
1341298844000;4.66289;2060.420;13.7992
1341302445000;4.66291;2060.440;13.7997
1341306044000;4.66299;2060.480;13.7999
1341309644000;4.66303;2060.510;13.8005
1341313244000;4.66294;2060.560;13.8000
1341316844000;4.66299;2060.600;13.8001
1341320444000;4.66305;2060.640;13.8007
1341324044000;4.66316;2060.660;13.8020
1341327644000;4.66323;2060.640;13.8020
1341331244000;4.66375;2060.620;13.8067
1341334844000;4.66450;2060.540;13.8131
1341338444000;4.66456;2060.500;13.8137
1341342044000;4.66458;2060.440;13.8142
1341345644000;4.66464;2060.410;13.8146
1341349244000;4.66470;2060.430;13.8151
1341352844000;4.66477;2060.450;13.8156
1341356444000;4.66478;2060.480;13.8155
1341360044000;4.66478;2060.540;13.8156
1341363644000;4.66472;2060.540;13.8150
1341367244000;4.66467;2060.570;13.8144
1341370844000;4.66474;2060.550;13.8148
1341374444000;4.66467;2060.530;13.8144
1341378044000;4.66469;2060.490;13.8144
1341385244000;4.66460;2060.410;13.8138
1341388844000;4.66458;2060.370;13.8140
1341392444000;4.66443;2060.400;13.8126
1341396044000;4.66438;2060.430;13.8120
1341399644000;4.66437;2060.480;13.8120
1341403244000;4.66439;2060.540;13.8122
1341406844000;4.66418;2060.580;13.8105
1341410444000;4.66423;2060.600;13.8110
1341414044000;4.66428;2060.610;13.8114
1341417644000;4.66438;2060.580;13.8123
1341421244000;4.66436;2060.530;13.8120
1341424844000;4.66436;2060.480;13.8121
1341428444000;4.66436;2060.440;13.8120
1341432044000;4.66436;2060.400;13.8118
1341435644000;4.66422;2060.370;13.8111
1341439244000;4.66411;2060.400;13.8100
1341442844000;4.66417;2060.420;13.8106
1341446444000;4.66422;2060.450;13.8108
1341450044000;4.66430;2060.510;13.8114
1341453644000;4.66432;2060.550;13.8120
1341457244000;4.66432;2060.520;13.8116
1341460844000;4.66416;2060.530;13.8103
1341464444000;4.66414;2060.510;13.8104
1341468044000;4.66417;2060.470;13.8106
1341471644000;4.66417;2060.420;13.8106
1341475244000;4.66427;2060.380;13.8112
1341478844000;4.66438;2060.360;13.8123
1341482444000;4.66435;2060.370;13.8123
1341486044000;4.66431;2060.430;13.8115
1341489644000;4.66431;2060.480;13.8118
1341493244000;4.66431;2060.550;13.8115
1341496844000;4.66431;2060.580;13.8114
1341500444000;4.66431;2060.580;13.8115
1341504044000;4.66431;2060.600;13.8111
1341507644000;4.66431;2060.560;13.8112
1341511244000;4.66428;2060.500;13.8114
1341514844000;4.66422;2060.440;13.8109
1341518444000;4.66399;2060.410;13.8087
1341522044000;4.66399;2060.390;13.8087
1341525644000;4.66403;2060.390;13.8090
1341529244000;4.66413;2060.390;13.8098
1341532844000;4.66401;2060.420;13.8090
1341536444000;4.66403;2060.470;13.8090
1341540044000;4.66403;2060.520;13.8090
1341543644000;4.66397;2060.530;13.8084
1341547244000;4.66404;2060.540;13.8091
1341550844000;4.66401;2060.550;13.8087
1341554444000;4.66404;2060.490;13.8091
1341558043000;4.66403;2060.470;13.8091
1341561644000;4.66404;2060.410;13.8093
1341565244000;4.66406;2060.400;13.8095
1341568844000;4.66413;2060.400;13.8100
1341572443000;4.66411;2060.440;13.8097
1341576044000;4.66411;2060.460;13.8098
1341579644000;4.66377;2060.510;13.8067
1341583244000;4.66373;2060.580;13.8066
1341586843000;4.66373;2060.610;13.8063
1341590443000;4.66375;2060.600;13.8063
1341594044000;4.66375;2060.590;13.8064
1341597644000;4.66383;2060.550;13.8076
1341601243000;4.66395;2060.500;13.8081
1341604843000;4.66395;2060.470;13.8082
1341608443000;4.66399;2060.450;13.8092
1341612044000;4.66390;2060.400;13.8082
1341615644000;4.66383;2060.420;13.8072
1341619244000;4.66384;2060.450;13.8071
1341622843000;4.66385;2060.440;13.8077
1341626443000;4.66384;2060.510;13.8075
1341630044000;4.66387;2060.530;13.8077
1341633644000;4.66389;2060.550;13.8076
1341637243000;4.66389;2060.560;13.8077
1341640843000;4.66389;2060.530;13.8075
1341644443000;4.66384;2060.500;13.8075
1341648043000;4.66389;2060.470;13.8079
1341651643000;4.66390;2060.440;13.8080
1341655243000;4.66395;2060.420;13.8080
1341658843000;4.66399;2060.430;13.8087
1341662443000;4.66406;2060.460;13.8092
1341666044000;4.66411;2060.510;13.8095
1341669643000;4.66411;2060.540;13.8096
1341673243000;4.66413;2060.560;13.8103
1341676843000;4.66414;2060.560;13.8099
1341680443000;4.66413;2060.580;13.8093
1341684043000;4.66416;2060.560;13.8098
1341687643000;4.66416;2060.520;13.8101
1341691243000;4.66420;2060.500;13.8108
1341694843000;4.66416;2060.470;13.8101
1341698443000;4.66409;2060.430;13.8100
1341702043000;4.66416;2060.410;13.8104
1341705643000;4.66420;2060.430;13.8109
1341709243000;4.66425;2060.430;13.8114
1341712843000;4.66425;2060.450;13.8114
1341716444000;4.66427;2060.480;13.8112
1341720043000;4.66417;2060.530;13.8104
1341723643000;4.66418;2060.580;13.8110
1341727243000;4.66418;2060.530;13.8109
1341730843000;4.66420;2060.510;13.8106
1341734443000;4.66427;2060.470;13.8114
1341738043000;4.66425;2060.480;13.8113
1341741643000;4.66425;2060.440;13.8111
1341745243000;4.66422;2060.430;13.8114
1341748843000;4.66296;2060.460;13.8022
1341752443000;4.66286;2060.470;13.8020
1341756043000;4.66345;2060.520;13.8058
1341759643000;4.66385;2060.550;13.8087
1341763244000;4.66390;2060.550;13.8088
1341766843000;4.66397;2060.570;13.8093
1341770443000;4.66403;2060.560;13.8097
1341774043000;4.66403;2060.540;13.8097
1341777643000;4.66406;2060.510;13.8101
1341781243000;4.66392;2060.490;13.8089
1341784843000;4.66377;2060.450;13.8079
1341788443000;4.66364;2060.430;13.8067
1341792043000;4.66370;2060.410;13.8075
1341795643000;4.66397;2060.430;13.8092
1341799243000;4.66399;2060.450;13.8093
1341802843000;4.66414;2060.490;13.8103
1341806443000;4.66416;2060.520;13.8103
1341810043000;4.66408;2060.550;13.8099
1341813643000;4.66336;2060.550;13.8048
1341817243000;4.66320;2060.530;13.8036
1341820843000;4.66324;2060.530;13.8040
1341824443000;4.66320;2060.520;13.8038
1341828043000;4.66317;2060.490;13.8037
1341831643000;4.66303;2060.450;13.8025
1341835243000;4.66299;2060.460;13.8023
1341838843000;4.66289;2060.470;13.8015
1341842443000;4.66316;2060.480;13.8033
1341846043000;4.66316;2060.520;13.8037
1341849643000;4.66282;2060.530;13.8008
1341853243000;4.66274;2060.550;13.8006
1341856843000;4.66282;2060.540;13.8011
1341860443000;4.66286;2060.520;13.8012
1341864043000;4.66286;2060.520;13.8016
1341867643000;4.66294;2060.510;13.8018
1341871243000;4.66295;2060.450;13.8023
1341874843000;4.66294;2060.450;13.8020
1341878443000;4.66303;2060.440;13.8028
1341882043000;4.66305;2060.450;13.8027
1341885643000;4.66302;2060.440;13.8028
1341889243000;4.66266;2060.470;13.8000
1341892843000;4.66260;2060.480;13.8000
1341896443000;4.66228;2060.500;13.7971
1341900043000;4.66205;2060.540;13.7960
1341903643000;4.66181;2060.540;13.7941
1342022443000;4.66009;2060.490;13.7808
1342026049000;4.66016;2060.510;13.7815
1342029649000;4.66019;2060.540;13.7816
1342033249000;4.66026;2060.530;13.7820
1342036849000;4.66061;2060.520;13.7848
1342040449000;4.65963;2060.530;13.7773
1342044049000;4.65957;2060.510;13.7764
1342047649000;4.65976;2060.490;13.7780
1342051249000;4.65974;2060.480;13.7779
1342054849000;4.65968;2060.450;13.7775
1342058449000;4.65949;2060.460;13.7760
1342062049000;4.65948;2060.470;13.7759
1342065649000;4.65955;2060.450;13.7762
1342069249000;4.65963;2060.500;13.7771
1342072849000;4.65962;2060.490;13.7765
1342076449000;4.65955;2060.510;13.7767
1342080049000;4.65937;2060.530;13.7755
1342083649000;4.65955;2060.550;13.7764